Location: Fort Wayne
(41.1310°N, 85.1290°W)
Time: 07:22:59
(UTC-04:00)

Vanguard 3 - Visible Passes

Search period start: 22 June 2018 00:00
Search period end: 02 July 2018 00:00
Orbit: 508 x 3264 km, 33.3° (Epoch: 21 June)

Date Brightness Start Highest point End Pass type
(mag) Time Alt. Az. Time Alt. Az. Time Alt. Az.
22 Jun 8.3 04:32:13 21° SSW 04:35:16 35° SSE 04:42:51 10° E visible
23 Jun 8.6 03:22:29 20° SE 03:22:29 20° SE 03:26:41 10° ESE visible
23 Jun 8.3 05:27:30 10° WSW 05:32:58 47° S 05:42:21 10° ESE visible
24 Jun 7.9 04:17:20 26° SSW 04:19:25 35° SSE 04:26:14 10° E visible
25 Jun 8.7 03:07:37 19° SE 03:07:37 19° SE 03:10:29 10° ESE visible
25 Jun 8.1 05:12:12 10° WSW 05:17:08 44° S 05:25:30 10° ESE visible
26 Jun 7.6 04:02:31 31° SSW 04:03:38 34° SSE 04:09:44 10° ESE visible
27 Jun 8.9 02:52:51 15° ESE 02:52:51 15° ESE 02:54:23 10° ESE visible
27 Jun 7.9 04:57:26 14° WSW 05:01:21 41° S 05:08:44 10° ESE visible
28 Jun 7.5 03:47:49 33° S 03:47:55 33° SSE 03:53:20 10° ESE visible
29 Jun 9.2 02:38:13 11° ESE 02:38:13 11° ESE 02:38:23 10° ESE visible
29 Jun 7.8 04:42:49 20° SW 04:45:38 37° S 04:52:05 10° ESE visible
30 Jun 7.8 03:33:17 28° SSE 03:33:17 28° SSE 03:37:03 10° ESE visible
01 Jul 7.6 04:28:25 26° SW 04:29:57 32° S 04:35:30 10° ESE visible
